Location: Budapest
(47.4979°N, 19.0402°E)
Time: 03:37:27
(UTC+02:00)

N. Korean satellite - Visible Passes

Search period start: 01 October 2020 00:00
Search period end: 11 October 2020 00:00
Orbit: 455 x 503 km, 97.2° (Epoch: 30 September)

Date Brightness Start Highest point End Pass type
(mag) Time Alt. Az. Time Alt. Az. Time Alt. Az.
02 Oct 8.6 05:50:49 10° NNE 05:54:06 32° E 05:57:19 10° SSE visible
03 Oct 9.8 05:25:28 10° NE 05:27:52 17° E 05:30:13 10° SE visible
04 Oct 10.8 18:45:52 10° WSW 18:46:57 11° W 18:48:03 10° WNW visible
05 Oct 7.6 06:05:50 10° NNE 06:09:20 49° E 06:12:44 10° S visible
06 Oct 9.2 05:40:10 10° NE 05:43:08 24° E 05:46:02 10° SSE visible
07 Oct 10.0 05:15:14 10° ENE 05:16:50 13° E 05:18:27 10° ESE visible
08 Oct 6.7 06:20:54 10° NNE 06:24:28 79° ESE 06:27:56 10° S visible
08 Oct 10.2 18:33:49 10° SW 18:35:55 14° W 18:38:00 10° NW visible
09 Oct 8.3 05:55:01 10° NNE 05:58:20 36° E 06:01:33 10° SSE visible
10 Oct 9.7 05:29:32 10° NE 05:32:04 18° E 05:34:33 10° SE visible
